Theta_e
300 302 301 300 299 299 296 296 292 294 294 296 298 297 297 297 297 298 297 297 296 295 296 297 298 300 302 301 303 303 306 304 302 302 303 304 304 304 305 302 302 303 303 301
300 302 301 299 299 298 298 297 296 296 294 299 300 299 298 298 298 297 297 298 298 298 298 298 299 301 303 303 302 303 306 307 304 303 304 304 303 304 303 302 305 306 306 302
294 303 301 293 300 300 299 300 297 291 294 300 297 297 296 296 298 299 298 298 298 299 299 299 300 302 302 303 303 304 304 306 305 304 304 307 306 306 306 306 304 305 305 304
293 297 288 300 306 303 300 301 300 301 300 298 297 297 297 297 297 298 299 300 299 299 298 300 300 303 303 304 303 303 304 304 305 305 304 305 306 303 303 306 302 301 301 299
291 292 296 301 305 301 298 296 302 300 299 299 299 298 296 299 299 299 299 299 299 299 299 299 301 303 303 303 302 303 304 304 305 305 305 307 307 307 303 301 302 302 301 300
296 291 288 300 306 307 304 292 302 301 299 298 298 289 292 299 304 300 300 301 300 300 300 300 301 304 302 302 301 303 307 307 307 307 305 307 308 308 308 305 303 304 303 301
295 293 298 305 307 307 289 290 301 301 299 298 295 295 297 301 301 301 301 301 301 299 300 300 302 305 301 303 303 305 307 309 308 307 305 305 303 307 307 306 307 304 302 301
296 292 289 308 305 296 299 300 300 300 299 298 299 299 299 300 301 302 300 300 301 300 300 302 303 303 305 301 304 309 308 307 307 306 307 306 296 297 300 301 302 300 301 298
297 296 303 304 303 303 302 300 299 299 300 301 300 299 299 299 300 301 300 301 302 301 301 302 304 303 302 304 305 307 305 304 305 305 304 302 294 293 293 294 295 295 295 294
300 306 306 304 304 304 302 300 302 303 302 302 299 299 300 301 300 300 301 302 302 304 302 302 304 306 304 306 309 306 304 305 305 304 306 300 299 292 289 288 288 291 293 289
299 304 304 304 305 305 303 303 303 304 304 302 301 301 302 301 301 301 301 303 302 303 302 303 305 305 306 308 308 305 305 305 304 305 306 305 299 295 291 288 288 286 285 289
296 303 302 303 305 306 303 302 303 304 303 303 302 300 302 301 301 302 304 303 303 303 303 304 305 306 307 308 307 308 305 304 303 305 306 306 297 293 293 292 292 292 291 288
305 309 307 307 308 308 303 302 305 306 304 303 303 303 302 302 301 303 303 303 303 303 305 304 305 305 307 308 306 305 303 303 304 306 304 301 300 295 292 292 294 293 292 292
311 313 308 312 310 308 305 304 307 306 305 305 304 304 304 303 302 302 303 304 304 305 305 305 305 305 307 308 306 305 304 302 303 303 303 302 302 300 296 294 292 292 294 293
310 309 307 310 311 309 307 305 306 305 305 304 304 304 305 303 302 302 303 304 305 305 305 306 306 306 307 307 307 305 306 306 306 306 305 303 301 299 300 298 294 294 294 293
308 308 307 307 307 308 309 310 306 306 307 305 305 304 307 306 305 305 306 305 303 302 305 304 304 306 308 308 306 305 305 303 301 304 304 303 298 297 296 298 297 296 291 292
304 304 305 305 306 307 307 309 310 311 311 307 306 306 306 305 304 304 305 305 305 305 306 305 305 307 309 308 306 306 306 305 300 302 303 301 296 298 297 297 294 293 293 293
306 305 306 307 307 307 308 310 311 311 310 309 308 307 306 304 303 303 304 305 306 306 306 307 307 308 309 308 306 306 309 305 305 303 303 300 297 298 295 294 296 295 294 293
307 306 307 309 310 310 309 308 310 311 311 309 309 308 306 307 304 305 305 305 305 304 306 308 306 305 307 308 305 305 307 308 307 305 305 300 299 298 298 294 294 296 296 295
305 306 307 309 309 309 308 309 309 310 311 308 308 306 306 307 306 307 307 305 305 307 308 308 307 307 306 306 301 305 305 305 305 306 307 306 303 296 297 293 294 294 294 295
304 305 306 308 307 308 308 308 308 308 309 311 310 309 309 308 308 308 307 305 306 309 308 305 307 307 309 306 306 306 304 304 304 305 304 304 307 305 298 298 295 294 294 294
307 305 305 306 305 304 307 306 306 308 308 308 309 310 309 309 309 308 308 308 310 301 309 311 311 304 308 301 306 305 305 304 304 305 306 304 303 304 306 300 296 295 295 293
304 305 306 307 304 303 304 304 304 305 305 306 307 307 308 309 309 307 306 309 310 305 307 308 302 292 291 303 306 308 308 307 305 304 307 307 305 304 304 306 302 297 296 294
301 303 305 307 304 302 301 301 302 303 304 305 306 307 308 308 308 311 312 305 301 301 305 306 300 291 290 306 307 308 306 305 304 304 304 298 304 304 304 304 306 299 297 293
302 303 302 303 301 300 301 301 301 301 302 302 303 304 308 311 309 310 312 312 300 300 307 296 292 291 298 303 306 306 307 307 306 305 305 305 304 306 305 305 307 305 301 297
300 301 300 303 302 302 302 301 299 300 300 301 302 303 307 309 308 308 308 305 309 305 307 307 304 301 303 304 305 307 307 307 306 306 306 306 305 306 307 308 307 304 302 301
301 298 298 299 301 302 304 301 300 300 300 300 302 303 304 305 306 305 302 310 311 311 309 306 304 301 306 306 306 307 309 309 304 309 308 307 308 308 309 309 309 309 306 302
Wind_Speed
8 18 19 15 13 12 9 5 6 3 5 8 8 8 8 9 6 6 6 4 4 3 2 3 4 5 5 4 4 4 5 5 6 6 5 5 5 5 5 5 4 5 5 5
9 16 20 17 16 13 13 9 7 6 3 5 5 9 10 10 6 6 6 4 4 3 3 3 3 4 5 6 5 5 6 6 6 6 6 5 5 3 4 4 4 4 4 5
4 2 8 11 9 11 10 9 2 5 2 6 6 8 6 6 5 6 5 4 4 3 1 0 2 3 5 5 3 6 6 6 6 6 6 5 4 4 4 5 5 5 4 4
4 4 6 4 5 13 13 6 7 8 6 7 7 5 6 4 6 5 5 4 4 2 1 2 2 4 4 5 4 5 5 6 5 5 6 5 5 4 4 4 5 4 5 4
5 4 3 10 2 4 2 5 4 10 9 10 9 6 3 4 4 5 5 4 3 3 2 0 2 5 4 5 5 5 5 5 5 5 6 5 6 6 3 3 3 3 2 3
2 6 3 4 9 7 4 4 5 6 8 10 6 2 4 5 4 5 5 5 5 3 1 1 4 4 3 3 4 5 5 5 5 4 5 6 6 5 4 3 3 3 2 3
3 4 3 6 9 3 7 5 0 4 5 5 4 5 6 6 5 5 5 5 3 3 2 2 3 4 2 4 4 5 6 5 5 6 6 6 5 5 4 3 3 4 4 3
4 5 2 4 6 7 5 1 4 4 4 6 6 6 5 6 6 5 3 3 4 2 2 3 2 2 2 4 4 4 6 6 7 7 5 3 5 5 5 5 4 3 2 3
4 5 3 4 6 2 5 4 1 5 5 6 6 5 6 5 5 4 3 4 2 2 3 1 2 1 2 3 4 4 4 5 6 6 4 3 4 5 3 4 3 3 2 2
5 4 4 5 2 5 5 5 5 6 7 6 6 5 6 5 4 3 2 3 2 2 1 1 0 0 2 3 3 3 5 6 6 5 5 2 2 2 3 2 2 2 2 3
3 2 4 0 4 5 6 6 7 6 6 7 7 5 5 4 5 5 3 3 2 3 1 3 3 2 3 4 2 4 4 5 6 4 4 3 3 2 1 3 3 2 2 2
4 6 4 5 4 8 7 6 7 8 5 4 6 6 5 6 5 4 3 2 1 2 1 4 4 4 4 5 3 3 4 4 5 5 3 4 3 3 6 8 8 8 7 5
3 4 3 2 4 4 7 6 7 9 8 8 6 6 5 5 3 5 4 4 4 5 3 4 4 5 5 4 3 4 3 6 5 5 4 3 2 5 5 5 7 9 9 8
14 8 8 7 5 6 7 7 9 8 8 9 8 5 6 6 4 5 6 6 4 4 4 4 4 6 6 5 3 5 6 7 4 5 5 4 4 5 5 4 4 5 5 6
10 8 3 6 14 5 5 3 5 6 8 6 7 7 7 8 7 8 7 6 5 4 6 6 6 7 7 6 4 5 5 5 5 5 5 5 3 3 4 5 5 5 3 4
10 11 11 11 9 8 9 10 7 7 8 8 10 8 9 9 8 7 7 6 4 5 6 6 6 7 6 3 2 4 5 8 7 5 5 5 3 1 3 4 4 5 4 3
10 11 9 11 8 10 8 8 7 6 9 12 14 11 7 7 6 6 7 7 7 7 7 6 8 6 5 3 1 3 4 4 6 5 5 4 3 1 3 4 5 5 4 3
4 3 5 5 7 7 9 9 11 13 14 12 11 9 8 8 9 8 7 7 6 6 7 7 7 6 6 5 2 3 4 5 5 5 6 3 5 2 3 3 5 5 4 2
6 6 8 9 9 9 7 9 10 13 16 3 10 10 11 8 7 7 7 6 6 7 7 7 10 8 7 6 3 2 4 5 5 6 4 4 5 3 4 4 4 5 5 4
5 5 6 7 11 10 10 10 10 10 11 8 5 4 7 7 7 7 6 8 8 7 7 7 8 7 8 8 6 4 4 5 4 4 5 5 4 4 4 5 5 5 5 5
3 3 4 6 8 9 8 10 10 8 9 9 8 6 6 6 9 8 6 4 8 7 8 9 6 5 5 6 5 4 4 4 4 4 4 4 5 5 4 5 5 5 5 3
5 4 3 4 6 7 8 7 10 10 9 9 7 6 7 9 11 9 8 6 6 9 5 5 6 9 7 9 4 5 5 4 4 4 4 2 3 5 3 4 5 5 5 5
6 4 3 2 3 6 6 6 7 7 9 10 10 10 7 5 3 4 7 1 1 5 5 5 8 9 9 4 4 6 7 5 5 5 4 4 4 4 4 4 4 5 5 5
5 6 4 1 1 4 7 6 7 7 8 9 8 9 10 7 5 4 3 6 9 13 8 8 7 9 7 5 5 6 6 5 5 5 5 7 5 4 3 3 4 5 5 5
4 4 1 3 3 4 6 5 6 6 7 8 8 7 8 6 4 8 5 6 12 10 7 9 10 10 6 5 6 6 7 7 6 5 5 5 5 6 4 4 4 5 6 5
4 5 5 6 5 4 4 4 4 5 4 6 6 6 7 6 5 7 11 10 7 9 9 8 6 6 6 7 7 7 7 7 6 6 6 5 5 5 6 4 4 5 5 7
5 5 5 4 3 5 3 4 4 5 5 4 6 6 6 6 6 6 10 10 6 10 10 9 5 7 6 7 7 8 8 8 7 5 4 5 1 3 6 6 6 5 4 7
Wind_Direction
58 82 72 63 73 63 76 156 98 163 131 196 185 144 145 130 133 134 136 122 116 123 10 2 14 351 348 342 16 352 334 342 343 335 337 346 6 10 5 26 27 32 41 35
63 78 69 65 61 72 77 69 83 115 74 105 89 89 114 128 141 114 115 128 113 150 35 14 6 355 348 338 357 2 349 347 351 358 338 358 8 22 2 354 25 42 47 57
128 106 56 43 64 76 64 39 85 64 122 118 78 96 115 136 125 118 130 150 139 152 84 24 351 336 339 339 10 11 4 354 5 2 7 6 21 17 6 348 1 22 37 50
120 48 59 299 49 97 84 49 53 90 100 117 119 115 121 145 134 137 136 144 149 163 99 256 338 335 341 2 6 6 359 354 6 5 351 340 344 350 345 345 354 22 49 51
87 56 359 267 331 305 171 19 36 112 127 132 126 95 28 147 154 148 164 190 165 178 191 41 332 320 360 3 350 358 340 348 348 1 344 343 359 349 5 35 15 26 51 38
124 112 165 265 307 323 146 55 339 106 146 168 178 79 236 189 158 136 166 160 169 198 131 17 314 328 19 331 357 343 340 334 343 351 343 337 336 352 346 47 59 67 44 12
12 95 59 309 310 7 78 231 232 124 151 170 159 197 183 180 148 171 184 174 194 181 201 262 293 338 3 6 359 316 318 4 354 347 350 352 352 359 359 22 72 72 82 36
56 75 34 310 353 81 197 45 141 122 148 117 131 149 170 158 164 169 144 172 151 148 258 231 297 351 52 10 308 340 356 345 339 342 334 4 16 354 23 23 51 42 80 357
126 189 210 10 129 124 150 132 115 121 161 148 152 169 157 145 168 182 161 191 235 222 233 272 292 262 61 286 324 336 355 345 333 334 6 51 29 26 18 32 48 28 41 353
66 26 120 136 137 143 133 126 126 134 148 147 152 168 144 158 185 195 226 209 237 324 75 217 219 176 242 294 327 351 349 340 332 326 325 336 91 63 68 18 28 8 358 351
36 52 76 60 177 152 127 135 120 150 149 154 141 161 168 183 194 209 226 192 224 177 140 214 205 234 264 278 337 335 334 338 328 306 314 267 252 197 185 224 194 191 234 254
217 241 163 238 196 152 139 163 153 140 145 178 157 172 158 186 194 193 195 201 168 233 304 227 220 232 258 276 293 313 333 320 303 306 298 287 212 272 242 249 217 233 244 222
280 278 283 196 123 163 147 164 160 171 167 175 188 171 178 180 200 178 187 218 226 230 227 226 225 253 266 273 299 306 293 305 306 308 311 300 230 205 232 300 281 278 268 243
17 38 17 12 275 204 166 184 174 176 183 176 183 179 176 177 200 190 193 211 228 236 233 229 237 254 268 274 284 293 298 285 283 288 283 283 240 212 187 207 239 282 307 260
18 27 352 16 27 335 289 202 191 192 200 198 191 184 181 188 206 212 217 223 238 248 240 224 239 258 268 272 290 301 316 309 311 305 296 292 272 216 179 187 215 248 311 323
37 29 18 22 10 18 16 349 298 271 213 207 203 195 198 199 204 203 205 217 198 235 243 231 240 253 252 250 308 305 300 285 284 297 299 309 311 158 159 212 200 217 245 240
39 17 6 3 353 350 342 331 312 308 310 203 204 204 194 196 187 200 215 217 211 217 232 234 243 252 242 268 22 290 304 302 290 303 307 296 258 249 113 177 182 204 232 216
67 20 1 344 335 333 334 343 340 331 324 227 199 190 197 185 199 209 217 219 218 233 233 235 241 248 257 251 212 293 306 310 319 307 308 288 251 204 179 160 193 197 231 246
46 22 354 348 349 343 343 338 336 333 335 199 153 190 217 218 201 211 211 206 213 226 247 228 235 240 249 247 244 276 297 309 320 308 314 298 272 228 228 173 209 199 214 219
26 27 355 343 354 348 345 339 330 341 342 351 314 176 196 208 236 229 211 213 216 216 230 229 223 223 231 254 247 231 266 288 300 280 299 330 287 277 274 205 192 190 193 197
332 358 358 352 346 348 347 344 339 342 339 0 9 340 280 253 241 224 214 212 244 219 224 225 213 217 217 227 225 233 244 270 295 298 292 308 305 298 237 219 210 195 199 194
286 287 328 21 0 342 344 348 350 345 345 343 332 329 336 291 255 241 226 196 247 221 223 218 212 216 225 227 227 237 240 250 269 288 285 313 302 303 17 246 220 219 202 197
330 296 243 56 5 318 323 337 341 344 349 344 333 324 310 287 316 295 257 314 314 256 244 232 227 216 221 216 233 247 245 226 235 251 269 294 280 274 288 301 229 222 200 193
325 345 266 104 337 351 344 330 332 325 321 315 313 324 321 296 278 237 244 295 300 287 252 238 216 219 211 221 216 230 241 251 246 253 249 246 266 254 236 263 272 221 206 210
309 293 315 228 298 291 283 296 316 314 313 316 316 306 308 348 311 310 259 241 245 251 251 243 228 222 216 221 229 234 231 233 227 221 234 245 256 273 255 225 281 248 209 193
315 285 281 231 228 236 267 282 281 288 298 313 320 322 322 326 325 347 324 285 255 273 272 257 223 209 216 229 230 230 235 236 231 235 240 242 245 268 279 273 241 242 205 185
327 348 341 347 299 275 240 266 276 285 285 282 292 295 312 316 310 319 336 328 293 270 262 240 225 215 222 223 226 233 239 237 228 215 241 232 168 311 309 272 251 239 220 207